Location: Nairn
(57.5833°N, 3.8667°W)
Time: 12:37:48
(UTC+00:00)

Cosmos 1051 Rocket - Visible Passes

Search period start: 06 December 2021 00:00
Search period end: 16 December 2021 00:00
Orbit: 1491 x 1701 km, 74.0° (Epoch: 05 December)

Date Brightness Start Highest point End Pass type
(mag) Time Alt. Az. Time Alt. Az. Time Alt. Az.
06 Dec 9.4 00:18:12 18° NE 00:18:12 18° NE 00:20:54 10° NE visible
06 Dec 8.3 02:16:22 44° NE 02:16:22 44° NE 02:22:21 10° NNE visible
06 Dec 7.9 04:14:33 47° NNW 04:14:33 47° NNW 04:23:30 10° NE visible
06 Dec 8.5 06:12:44 20° NW 06:17:39 31° N 06:26:02 10° NE visible
06 Dec 9.5 23:56:20 15° NE 23:56:20 15° NE 23:58:13 10° NE visible
07 Dec 8.5 01:54:30 38° NE 01:54:30 38° NE 01:59:52 10° NNE visible
07 Dec 7.9 03:52:41 49° NNW 03:52:41 49° NNW 04:00:59 10° NNE visible
07 Dec 8.5 05:50:52 24° NW 05:54:50 31° N 06:03:17 10° NE visible
07 Dec 8.5 07:50:13 10° NW 07:58:48 35° NNE 08:07:37 10° E visible
07 Dec 9.6 23:34:27 12° NE 23:34:27 12° NE 23:35:28 10° NE visible
08 Dec 8.7 01:32:38 33° NE 01:32:38 33° NE 01:37:24 10° NNE visible
08 Dec 8.0 03:30:49 50° N 03:30:49 50° N 03:38:27 10° NNE visible
08 Dec 8.4 05:28:59 27° NW 05:32:02 32° NNW 05:40:32 10° NE visible
08 Dec 8.6 07:27:32 10° NW 07:36:01 33° NNE 07:44:43 10° E visible
08 Dec 9.7 23:12:34 10° NE 23:12:34 10° NE 23:12:36 10° NE visible
09 Dec 8.9 01:10:45 29° NE 01:10:45 29° NE 01:14:54 10° NNE visible
09 Dec 8.1 03:08:55 48° N 03:08:55 48° N 03:15:57 10° NNE visible
09 Dec 8.3 05:07:06 31° NW 05:09:13 33° NNW 05:17:51 10° NE visible
09 Dec 8.6 07:05:16 11° NW 07:13:13 32° NNE 07:21:49 10° ENE visible
10 Dec 9.1 00:48:51 25° NE 00:48:51 25° NE 00:52:25 10° NNE visible
10 Dec 8.2 02:47:01 45° NNE 02:47:01 45° NNE 02:53:28 10° NNE visible
10 Dec 8.3 04:45:12 34° NW 04:46:26 35° NNW 04:55:11 10° NE visible
10 Dec 8.6 06:43:22 14° NW 06:50:24 31° N 06:58:56 10° ENE visible
11 Dec 9.2 00:26:56 21° NE 00:26:56 21° NE 00:29:53 10° NNE visible
11 Dec 8.4 02:25:06 42° NNE 02:25:06 42° NNE 02:30:58 10° NNE visible
11 Dec 8.2 04:23:17 37° NNW 04:23:40 37° NNW 04:32:32 10° NE visible
11 Dec 8.6 06:21:27 17° NW 06:27:35 31° N 06:36:03 10° ENE visible
12 Dec 9.4 00:05:01 18° NE 00:05:01 18° NE 00:07:22 10° NE visible
12 Dec 8.6 02:03:11 38° NNE 02:03:11 38° NNE 02:08:30 10° NNE visible
12 Dec 8.2 04:01:21 39° NNW 04:01:21 39° NNW 04:09:56 10° NE visible
12 Dec 8.6 05:59:32 19° NW 06:04:45 30° N 06:13:12 10° ENE visible
12 Dec 9.5 23:43:04 16° NE 23:43:04 16° NE 23:44:48 10° NE visible
13 Dec 8.7 01:41:15 34° NNE 01:41:15 34° NNE 01:46:01 10° NNE visible
13 Dec 8.2 03:39:25 40° NNW 03:39:25 40° NNW 03:47:21 10° NE visible
13 Dec 8.6 05:37:36 22° NW 05:41:55 30° N 05:50:21 10° ENE visible
13 Dec 8.4 07:36:37 10° NW 07:45:40 41° NNE 07:54:56 10° E visible
13 Dec 9.6 23:21:08 13° NE 23:21:08 13° NE 23:22:13 10° NE visible
14 Dec 8.9 01:19:18 31° NNE 01:19:18 31° NNE 01:23:33 10° NNE visible
14 Dec 8.3 03:17:28 40° N 03:17:28 40° N 03:24:46 10° NE visible
14 Dec 8.6 05:15:39 25° NW 05:19:05 30° N 05:27:32 10° NE visible
14 Dec 8.5 07:14:00 10° NW 07:22:57 39° NNE 07:32:05 10° E visible
14 Dec 9.6 22:59:11 11° NE 22:59:11 11° NE 22:59:36 10° NE visible
15 Dec 9.0 00:57:21 27° NNE 00:57:21 27° NNE 01:01:04 10° NNE visible
15 Dec 8.4 02:55:31 40° N 02:55:31 40° N 03:02:14 10° NE visible
15 Dec 8.5 04:53:41 28° NNW 04:56:16 31° N 05:04:45 10° NE visible
15 Dec 8.6 06:51:52 12° NW 07:00:13 37° NNE 07:09:12 10° E visible
